Weather History for KCEW - May, 2013

Change the Weather History Date:

Wednesday, May 8, 2013

  Actual Average Record
Temperature  
Mean Temperature 66 °F -  
Max Temperature 84 °F 82 °F 93 °F (1949)
Min Temperature 51 °F 58 °F 39 °F (2007)
Cooling Degree Days 2    
Growing Degree Days 16 (Base 50)    
Moisture  
Dew Point 55 °F    
Average Humidity 72    
Maximum Humidity 97    
Minimum Humidity 34    
Precipitation  
Precipitation 0.00 in - - ()
Sea Level Pressure  
Sea Level Pressure 30.09 in    
Wind  
Wind Speed 2 mph (WSW)    
Max Wind Speed 13 mph    
Max Gust Speed 21 mph    
Visibility 8 miles    
Events      
Averages and records for this station are not official NWS values.
T = Trace of Precipitation, MM = Missing Value Source: NWS Daily Summary

Daily Weather History Graph

Daily Weather History Graph

Search for Another Location

Airport or City:

Trip Planner

Search our weather history database for the weather conditions in past years. The results will help you decide how hot, cold, wet, or windy it might be!

Date:

Astronomy

May. 08, 2013 Rise Set
Actual Time 5:55 AM CDT 7:29 PM CDT
Civil Twilight 5:29 AM CDT 7:55 PM CDT
Nautical Twilight 4:58 AM CDT 8:26 PM CDT
Astronomical Twilight 4:26 AM CDT 8:59 PM CDT
Moon 4:58 AM CDT (5/8) 6:30 PM CDT (5/8)
Length of Visible Light 14h 25m
Length of Day
13h 33m
Waning Crescent, 2% of the Moon is Illuminated
May 8
Waning Crescent
May 9
New
May 17
First Quarter
May 24
Full
May 31
Last Quarter

Hourly Weather History & Observations

Time (CDT) Temp. Heat Index Dew Point Humidity Pressure Visibility Wind Dir Wind Speed Gust Speed Precip Events Conditions
12:53 AM 57.0 °F - 54.0 °F 89% 30.06 in 6.0 mi Calm Calm - N/A   Clear
1:53 AM 55.9 °F - 54.0 °F 93% 30.04 in 6.0 mi Calm Calm - N/A   Clear
2:53 AM 54.0 °F - 51.1 °F 90% 30.03 in 5.0 mi Calm Calm - N/A   Clear
3:53 AM 53.1 °F - 51.1 °F 93% 30.04 in 7.0 mi Calm Calm - N/A   Clear
4:53 AM 52.0 °F - 48.9 °F 89% 30.04 in 6.0 mi Calm Calm - N/A   Clear
5:53 AM 51.1 °F - 48.9 °F 92% 30.06 in 4.0 mi Calm Calm - N/A   Clear
6:34 AM 51.8 °F - 48.2 °F 88% 30.09 in 6.0 mi Calm Calm - N/A   Scattered Clouds
6:43 AM 53.6 °F - 51.8 °F 94% 30.09 in 5.0 mi Calm Calm - N/A   Mostly Cloudy
6:53 AM 55.0 °F - 52.0 °F 89% 30.09 in 6.0 mi Calm Calm - N/A   Mostly Cloudy
7:05 AM 57.2 °F - 53.6 °F 88% 30.10 in 8.0 mi Calm Calm - N/A   Scattered Clouds
7:53 AM 64.0 °F - 57.9 °F 80% 30.11 in 10.0 mi Calm Calm - N/A   Clear
8:53 AM 72.0 °F - 57.0 °F 59% 30.11 in 10.0 mi WNW 4.6 mph - N/A   Clear
9:53 AM 75.0 °F - 55.0 °F 50% 30.12 in 10.0 mi WNW 3.5 mph - N/A   Clear
10:53 AM 77.0 °F - 54.0 °F 45% 30.12 in 10.0 mi Calm Calm - N/A   Scattered Clouds
11:53 AM 77.0 °F - 53.1 °F 43% 30.12 in 10.0 mi WSW 5.8 mph - N/A   Scattered Clouds
12:53 PM 78.1 °F - 53.1 °F 42% 30.10 in 10.0 mi West 4.6 mph - N/A   Mostly Cloudy
1:53 PM 81.0 °F - 52.0 °F 36% 30.09 in 10.0 mi Variable 5.8 mph - N/A   Mostly Cloudy
2:53 PM 82.0 °F - 52.0 °F 35% 30.07 in 10.0 mi NW 6.9 mph - N/A   Scattered Clouds
3:53 PM 82.9 °F - 52.0 °F 34% 30.05 in 10.0 mi SW 6.9 mph - N/A   Mostly Cloudy
4:53 PM 80.1 °F 80.6 °F 57.9 °F 47% 30.06 in 10.0 mi SW 12.7 mph 20.7 mph 0.00 in   Partly Cloudy
5:53 PM 78.1 °F - 60.1 °F 54% 30.06 in 10.0 mi SSW 10.4 mph - N/A   Mostly Cloudy
6:53 PM 75.0 °F - 62.1 °F 64% 30.07 in 10.0 mi SSW 10.4 mph - N/A   Clear
7:53 PM 71.1 °F - 61.0 °F 70% 30.08 in 10.0 mi South 4.6 mph - N/A   Clear
8:53 PM 69.1 °F - 62.1 °F 78% 30.10 in 10.0 mi South 3.5 mph - N/A   Clear
9:53 PM 66.9 °F - 62.1 °F 84% 30.12 in 8.0 mi Calm Calm - N/A   Clear
10:53 PM 63.0 °F - 61.0 °F 93% 30.12 in 5.0 mi Calm Calm - N/A   Clear
11:49 PM 62.6 °F - 60.8 °F 94% 30.12 in 2.0 mi Calm Calm - N/A   Clear
11:53 PM 61.0 °F - 60.1 °F 97% 30.12 in 2.5 mi Calm Calm - N/A   Clear